Regional Weather Roundup
Issued by NWS Cleveland, OH

Home | Current Version | Previous Version | Graphics & Text | Print | Product List | Glossary On
Versions: 1 2 3 4 5 6 7 8 9 10 11 12 13 14 15 16 17 18 19 20 21 22 23 24 25 26 27 28 29 30 31 32 33 34 35 36 37 38 39 40 41 42 43 44 45 46 47 48 49 50
493
ASUS41 KCLE 060910
RWRCLE
OHIO REGIONAL WEATHER ROUNDUP
NATIONAL WEATHER SERVICE WILMINGTON, OH
400 AM EST SAT FEB 06 2016

NOTE: "FAIR" INDICATES FEW OR NO CLOUDS BELOW 12,000 FEET WITH NO
SIGNIFICANT WEATHER AND/OR OBSTRUCTIONS TO VISIBILITY.

OHZ001>008-015>018-024>027-034-035-043-044-061000-
   NORTHWEST OHIO

CITY           SKY/WX    TMP DP  RH WIND       PRES   REMARKS
DEFIANCE       FAIR      27  22  81 NW7       30.31S WCI  19
FINDLAY        FAIR      26  22  84 SW6       30.29S WCI  19
TOLEDO EXPRESS FAIR      26  21  81 W7        30.30R WCI  18
TOLEDO EXEC    FAIR      25  22  88 SW5       30.31S FOG     WCI  19
LIMA           FAIR      25  22  88 SW5       30.29F WCI  19
$$

OHZ009>014-019>023-028>033-038-089-061000-
   NORTHEAST OHIO

CITY           SKY/WX    TMP DP  RH WIND       PRES   REMARKS
CLE-HOPKINS    CLOUDY    30  23  75 SW9       30.30S WCI  22
CLE-LAKEFRONT  CLOUDY    33  24  69 SW14      30.28S WCI  23
CUY CO. ARPT   NOT AVBL
LORAIN-ELYRIA  FAIR      29  23  78 W8        30.29S WCI  21
ASHTABULA      CLOUDY    32  20  61 SW9       30.25F WCI  24
AKRON-CANTON   CLOUDY    31  17  56 SW10      30.26F WCI  22
WOOSTER        CLOUDY    30  21  69 SW6       30.27F WCI  24
MANSFIELD      FAIR      27  23  85 W5        30.26F WCI  22
YOUNGSTOWN     CLOUDY    32  18  56 SW12      30.25F WCI  23
$$

OHZ042-051>053-060>062-070>072-077>081-061000-
  SOUTHWEST OHIO

CITY           SKY/WX    TMP DP  RH WIND       PRES   REMARKS
CINC-COVINGTON NOT AVBL
CINC-LUNKEN    FAIR      27  25  92 CALM      30.36S
HAMILTON       FAIR      24  22  91 CALM      30.35S
DAYTON         FAIR      22  20  92 W3        30.31F
WRIGHT-PAT AFB CLEAR     24  21  91 CALM      30.31F
DAYTON GENERAL FAIR      26  21  81 CALM      30.31S
WILMINGTON     FAIR      26  20  77 SW3       30.30F
$$

OHZ036-037-039>041-045>050-054>059-063>069-073>076-082>088-061000-
  CENTRAL AND SOUTHEAST OHIO

CITY           SKY/WX    TMP DP  RH WIND       PRES   REMARKS
COLUMBUS       FAIR      28  19  69 CALM      30.31S
OSU AIRPORT    FAIR      25  22  88 W5        30.30F WCI  19
BOLTON FIELD   FAIR      26  23  88 NW3       30.31F
RICKENBACK AFB FAIR      28  20  74 SW3       30.31S
NEWARK         FAIR      26  19  74 NW5       30.30S WCI  20
MARION         FAIR      27  20  75 W3        30.29F
LANCASTER      FAIR      30  19  63 S5        30.31S WCI  25
ZANESVILLE     FAIR      33  16  49 S6        30.30F WCI  28
NEW PHILLY     CLOUDY    33  17  51 S6        30.30F WCI  28
$$




USA.gov is the U.S. government's official web portal to all federal, state and local government web resources and services.